sat.trackr.live / text

‹ back to catalog

STARLINK-3059

NORAD 49181 · 2021-082BD

PAYLOAD ACTIVE UNKNOWN

§ Identity

Operator
Country
US
Launch date
2021-09-14
Launch site
AFWTR
Launch vehicle
Mass (kg)
RCS (m²)

Purposes: comms

External: N2YO · Heavens-Above · Gunter

§ Orbital elements

Epoch: 2026-05-25T02:35:50.809344Z

Period
96.11 min
Inclination
69.9993°
Eccentricity
0.0003291
Mean motion
14.98331873 rev/d
Perigee alt
569.8 km
Apogee alt
574.3 km
Semi-major
6,950.2 km
B*
-1.3009e-5
RAAN
101.7796°
Arg perigee
269.2681°
Mean anomaly
90.8101°
Rev number
25,861

§ Raw data

STARLINK-30591 49181U 21082BD  26145.10822696 -.00000248  00000+0 -13009-4 0  99902 49181  69.9993 101.7796 0003291 269.2681  90.8101 14.98331873258618

JSON: /api/v1/satellites/49181 · /tle

For live sub-satellite position, see the globe view (requires WebGL).

§ Visibility from observer

Set your observer location to see the next 7 days of passes ≥ 10°. The values pass through the URL so the page stays shareable.

No JS? Fill the form by hand. The geolocation button needs JavaScript.